DW3383 Weather Reports


Display with metric or nautical units.
time (UTC)temp
F
wind
direction
speed
MPH
gust
MPH
rain 1hr
in
rain 24hr
in
rain mn
in
humidity
%
barometer
mb
20260508000807 52 16 1.0 5.0 0.00 0.00 0.00 51 1013.9
20260508000307 51 60 1.0 7.0 0.00 0.00 0.00 52 1013.9
20260507230806 53 306 1.0 5.0 0.00 0.00 0.00 49 1014.3
20260507230308 52 334 2.0 9.0 0.00 0.00 0.00 50 1014.3
20260507220308 50 346 2.0 8.0 0.00 0.00 0.00 50 1014.8
20260507210807 49 34 3.0 8.0 0.00 0.00 0.00 54 1015.2
20260507210307 49 263 3.0 8.0 0.00 0.00 0.00 53 1015.2
20260507190807 45 279 2.0 7.0 0.00 0.00 0.00 60 1016.0
20260507180808 44 340 2.0 5.0 0.00 0.00 0.00 64 1016.4
20260507180307 43 273 5.0 9.0 0.00 0.00 0.00 62 1016.5
20260507170809 41 281 4.0 8.0 0.00 0.00 0.00 63 1016.9
20260507160808 39 278 3.0 7.0 0.00 0.00 0.00 69 1017.2
20260507160307 38 281 3.0 6.0 0.00 0.00 0.00 69 1017.2
20260507150807 37 280 3.0 5.0 0.00 0.00 0.00 72 1017.1
20260507150308 37 292 2.0 5.0 0.00 0.00 0.00 72 1017.1
20260507140807 33 285 2.0 6.0 0.00 0.00 0.00 79 1017.0
20260507140308 33 290 3.0 5.0 0.00 0.00 0.00 83 1017.0
20260507130807 30 285 2.0 3.0 0.00 0.00 0.00 85 1016.8
20260507130307 30 283 2.0 3.0 0.00 0.00 0.00 86 1016.8
20260507120807 32 286 2.0 3.0 0.00 0.00 0.00 83 1016.4
20260507120307 32 275 2.0 5.0 0.00 0.00 0.00 81 1016.4
20260507110807 34 280 3.0 3.0 0.00 0.00 0.00 78 1016.2
20260507110307 34 278 3.0 5.0 0.00 0.00 0.00 77 1016.2
20260507100806 35 283 3.0 5.0 0.00 0.00 0.00 75 1015.8
20260507100307 35 258 3.0 5.0 0.00 0.00 0.00 75 1015.7
20260507090307 35 286 3.0 6.0 0.00 0.00 0.00 73 1015.0
20260507080807 34 165 3.0 5.0 0.00 0.00 0.00 76 1014.4
20260507080308 34 274 2.0 5.0 0.00 0.00 0.00 76 1014.4
20260507070815 36 145 3.0 5.0 0.00 0.00 0.00 72 1013.8
20260507060807 41 286 3.0 5.0 0.00 0.00 0.00 60 1013.0
20260507060307 41 273 3.0 9.0 0.00 0.00 0.00 60 1012.9
20260507050308 43 217 3.0 9.0 0.00 0.00 0.00 59 1012.4
20260507040807 45 273 4.0 6.0 0.00 0.00 0.00 63 1012.0
20260507040306 46 59 3.0 9.0 0.00 0.00 0.00 62 1012.0
20260507020808 50 331 5.0 8.0 0.00 0.00 0.00 56 1011.0
20260507020308 50 274 6.0 12.0 0.00 0.00 0.00 56 1010.6
20260507010807 50 272 5.0 9.0 0.00 0.00 0.00 55 1010.7
20260507010308 50 316 5.0 10.0 0.00 0.00 0.00 56 1010.8